Home   Weather   Oklahoma City   Past weeks
Flag for USA

Past Weather in Oklahoma City, Oklahoma, USA — Yesterday and Last 2 Weeks

Now
80 °F

Partly sunny.


Feels Like: 84 °F
Forecast: 81 / 69 °F
Wind: 15 mph from South

Location: Will Rogers World Airport

Current Time: May 25, 2019 at 2:46:09 pm

Latest Report: May 25, 2019 at 1:52 pm


Visibility: 10 mi

Pressure: 29.97 "Hg

Humidity: 74%

Dew Point: 71 °F

Location of Oklahoma CityLocation

Past Weather in Oklahoma City — Graph

°F

Oklahoma City Temperature Yesterday

Maximum temperature yesterday: 83 °F (at 3:52 pm)
Minimum temperature yesterday: 64 °F (at 10:04 pm)
Average temperature yesterday: 75 °F

High & Low Weather Summary for the Past Weeks

 TemperatureHumidityPressure
High85 °F (May 15, 2:52 pm)100% (May 11, 1:52 am)30.11 "Hg (May 11, 1:52 am)
Low46 °F (May 12, 3:52 am)35% (May 12, 2:52 pm)29.43 "Hg (May 21, 5:52 pm)
Average67 °F79%29.81 "Hg
* Reported May 10 12:52 pm — May 25 12:52 pm, Oklahoma City. Weather by CustomWeather, © 2019

Note: Actual official high and low records may vary slightly from our data, if they occured in-between our weather recording intervals... More about our weather records

Advertising

Oklahoma City Weather History for the Previous 24 Hours

Scroll right to see more
 ConditionsComfort  
Time TempWeatherWind HumidityBarometerVisibility
12:52 pm
Sat, May 25
81 °FBroken clouds.18 mph72%29.98 "Hg10 mi
12:36 pm80 °FPartly sunny.16 mph74%30.02 "Hg10 mi
11:52 am79 °FBroken clouds.20 mph74%29.99 "Hg10 mi
10:52 am76 °FBroken clouds.18 mph80%29.99 "Hg10 mi
9:52 am73 °FBroken clouds.18 mph88%30.00 "Hg10 mi
8:52 am72 °FPartly sunny.17 mph91%29.98 "Hg10 mi
8:14 am69 °FPartly sunny.15 mph93%30.00 "Hg10 mi
7:52 am67 °FBroken clouds.14 mph97%29.96 "Hg10 mi
6:52 am64 °FBroken clouds.9 mph97%29.94 "Hg10 mi
5:52 am63 °FPassing clouds.8 mph97%29.92 "Hg10 mi
4:52 am63 °FPassing clouds.7 mph97%29.90 "Hg10 mi
3:52 am63 °FPassing clouds.13 mph100%29.90 "Hg10 mi
2:52 am63 °FPassing clouds.18 mph100%29.88 "Hg10 mi
1:52 am63 °FPartly cloudy.14 mph100%29.92 "Hg10 mi
1:31 am64 °FPassing clouds.14 mph100%29.96 "Hg10 mi
12:52 am64 °FThunderstorms. Fog.15 mph100%29.97 "Hg6 mi
11:52 pm
Fri, May 24
64 °FThunderstorms. Low clouds.10 mph100%30.02 "Hg8 mi
10:52 pm64 °FThunderstorms. Fog.No wind100%29.96 "Hg5 mi
10:04 pm64 °FThunderstorms. Fog.5 mph100%30.00 "Hg4 mi
9:33 pm65 °FThunderstorms. Fog.25 mph97%29.97 "Hg2 mi
9:18 pm77 °FThunderstorms. Mostly cloudy.16 mph77%29.92 "Hg10 mi
8:52 pm77 °FOvercast.13 mph77%29.87 "Hg10 mi
7:52 pm78 °FMostly cloudy.14 mph76%29.83 "Hg10 mi
6:52 pm79 °FCloudy.14 mph74%29.82 "Hg10 mi
5:52 pm81 °FBroken clouds.22 mph69%29.82 "Hg10 mi
4:52 pm82 °FPartly sunny.23 mph70%29.84 "Hg10 mi
3:52 pm83 °FPartly sunny.22 mph68%29.87 "Hg10 mi
2:52 pm81 °FBroken clouds.20 mph72%29.88 "Hg10 mi
Weather by CustomWeather, © 2019

See weather overview